CAPE
886 1192 1271 54 95 61 60 72 89 95 55 12 91 353 175 68 33 0 6 0 52 259 692 1041 1026 1204 1413 1333 1537 1473 1491 1254 1372 1081 1210 1192 1227 1038 1479 1212 1511 1852 1159 164 1503 1680 1511 1475 1505
1418 1943 1026 55 78 46 35 244 119 55 66 56 9 57 79 41 56 15 6 144 349 393 451 714 959 1154 1305 1504 1463 1467 1386 1269 1150 999 1336 1346 1191 716 1225 1497 1147 1533 1705 946 900 1540 1567 1550 1297
432 122 121 14 19 61 52 245 57 3 18 46 57 24 22 56 99 32 19 429 320 134 264 662 1246 1065 1179 1354 1465 1387 1341 1219 1074 1088 1151 1238 1105 1422 1295 1543 1605 1657 1467 1595 1365 1470 1149 1288 1074
1101 197 790 337 38 184 292 89 0 0 0 16 64 13 74 85 44 55 283 201 78 69 227 914 1203 1207 1282 1309 1179 1303 1262 1232 1052 1206 923 861 1086 1347 1059 1458 1295 1446 1441 1628 1510 1543 1447 1223 715
0 2 133 121 125 150 97 29 5 22 38 88 168 190 215 87 31 129 143 91 0 12 516 1093 1407 1518 1698 1407 1306 1282 1461 1431 1349 1261 1262 1725 1323 1703 1381 1555 1590 1454 1435 1440 1425 1246 1183 1093 899
0 163 77 56 60 120 242 128 59 120 58 55 201 287 380 176 123 133 199 129 34 0 413 1082 1546 1516 1536 1623 1224 1245 1226 1373 1561 1274 1063 1717 1238 1460 1496 1688 1134 1099 1035 1009 896 828 1072 968 595
46 104 256 66 0 260 194 115 141 109 38 36 111 288 504 492 283 333 344 297 49 216 267 932 1317 1667 1406 1325 1415 1507 1312 1501 1488 1237 1281 1414 1107 1445 1209 1472 1220 1207 1020 1159 1138 871 771 1070 619
114 156 270 70 102 94 249 276 269 164 138 22 165 333 449 532 565 586 504 418 321 175 204 597 1135 1286 1255 1384 1515 1409 1371 1657 1525 1507 1464 1475 1733 1565 1370 1405 1323 1320 1074 1386 998 1075 766 754 829
169 386 312 58 88 40 70 337 277 228 21 0 1 223 484 628 505 593 353 299 119 33 72 461 760 766 805 1047 1333 1340 1461 1645 1398 1443 1310 1306 1206 1234 1394 978 1326 1280 1399 1042 831 1159 754 312 305
237 198 245 106 131 88 18 151 331 198 93 64 42 333 524 473 442 475 372 292 61 74 65 293 335 263 477 820 1247 1140 1175 1126 1231 1091 1244 1226 872 735 770 1366 1246 1297 1419 1031 748 612 55 3 9
1011 396 242 185 202 169 90 242 332 228 131 85 100 404 543 435 425 418 247 272 222 224 202 352 414 550 511 478 1013 839 553 744 875 575 806 933 965 671 1226 1222 1173 1024 1041 740 850 720 265 0 0
426 465 228 278 243 256 207 344 333 300 245 148 171 446 500 454 368 220 50 233 249 253 322 362 461 657 347 424 515 406 221 126 420 699 690 773 992 792 946 554 181 384 387 127 38 255 269 6 1
225 57 113 139 227 152 240 303 289 337 222 141 187 232 257 377 335 162 1 17 208 374 414 432 417 642 544 462 355 617 617 588 453 625 793 759 770 443 595 567 153 545 508 315 468 420 76 75 76
101 83 24 69 58 149 184 253 233 233 153 98 93 98 102 164 291 107 2 0 171 346 414 458 432 474 563 622 478 922 824 877 847 964 690 737 657 663 264 401 379 649 681 356 343 279 174 124 56
103 130 189 73 86 118 364 293 169 96 76 85 100 77 51 89 27 35 98 92 177 276 404 409 405 478 429 330 476 566 1115 913 1031 897 760 668 825 609 643 442 453 713 586 295 107 64 266 97 76
113 107 241 211 206 150 114 223 232 108 71 66 88 98 84 24 46 74 122 158 129 152 239 313 513 537 412 465 408 277 611 855 784 832 660 827 919 856 715 840 714 760 625 450 374 440 285 184 139
29 113 163 240 162 254 104 229 243 151 103 110 81 74 58 24 56 86 68 26 119 132 224 320 394 527 567 487 495 149 332 291 537 699 974 1045 762 867 765 631 707 859 769 687 553 592 519 463 459
110 90 154 313 168 132 224 152 274 170 127 136 134 107 83 4 0 1 0 0 51 159 285 363 433 323 514 473 385 56 182 389 551 866 898 679 356 475 881 522 272 615 769 738 622 766 746 637 593
139 75 136 207 293 63 211 218 203 178 144 102 80 151 119 99 76 1 0 0 58 252 383 367 495 385 464 542 493 98 196 475 705 968 1106 1005 1015 1046 1209 954 1007 739 710 898 884 968 884 837 633
111 80 76 209 262 120 56 285 112 169 193 147 159 233 279 247 186 135 45 14 88 237 295 198 462 498 718 614 556 537 466 889 814 747 943 1211 1157 1385 1384 1260 1164 1095 1173 1138 1087 1152 1092 852 843
1 0 6 55 295 76 44 185 203 70 126 119 175 258 373 412 386 386 194 124 81 141 135 88 286 458 698 639 638 773 1040 1368 1283 971 1159 1033 1321 1443 1540 1328 1263 1382 1244 905 1105 1179 1199 843 618
0 0 0 46 69 58 101 99 236 151 28 108 158 145 325 425 512 541 448 385 149 129 119 211 263 428 668 747 784 525 787 1188 1132 1116 1058 1097 1168 1315 1725 1755 1630 1630 1424 1163 1157 1201 1258 1160 961
0 0 0 0 0 0 13 0 68 172 114 38 123 161 221 330 456 535 611 580 437 284 301 409 305 574 687 884 783 736 927 1042 1235 1059 1116 1073 1232 1557 1755 1623 1578 1389 1245 1291 1273 1386 1335 1242 1391
0 0 0 0 0 0 0 0 0 102 115 85 94 115 182 276 331 503 588 585 710 654 652 701 675 786 771 832 874 1042 1252 1401 1228 1066 1273 1447 1195 1278 1526 1829 1750 1739 1678 1686 1660 1620 1731 1731 1710
0 0 0 0 0 0 0 0 0 8 26 95 124 88 103 199 223 343 525 558 565 852 916 945 941 1087 1127 1025 1002 1139 1741 1603 1402 1370 1731 1659 1407 1372 1552 1807 1830 2011 2004 1981 2000 1857 1937 1853 1673
0 0 0 0 0 0 0 0 0 0 31 41 84 56 48 78 191 259 373 488 464 636 1016 1164 1133 1131 1315 1361 1260 1230 1496 2060 1822 1378 1472 1665 1622 1407 1475 1977 1781 1839 1945 1906 2098 2052 2106 1679 1168
0 0 0 0 0 0 0 0 0 0 10 32 27 43 48 51 89 164 299 387 376 372 857 1162 1277 1261 1414 1449 1512 1566 1357 1536 2258 2448 2159 2012 1658 1803 2219 2196 1781 1774 1933 2374 2630 2645 2145 419 511
0 0 0 0 0 0 0 0 0 0 0 22 50 61 78 80 55 98 168 249 277 236 640 971 1241 1211 1386 1712 1783 1816 1767 1541 1524 1992 2314 2138 1854 1818 1724 1973 2308 2158 2398 2486 2382 2236 1838 1131 565
0 0 0 0 0 0 0 0 0 0 0 0 23 69 22 39 76 40 42 141 150 164 467 726 1235 1251 1412 1693 1966 2079 2039 2033 2103 1903 1925 2008 2459 2644 2467 2536 2419 2366 2342 2364 2064 2515 2260 1544 819
0 0 0 0 0 0 0 0 0 0 0 0 0 8 0 0 38 80 51 60 78 130 301 535 1158 1302 1348 1611 1664 1959 2303 2431 2418 2384 2299 2161 2420 2529 2405 2173 2294 2475 2524 2052 2308 2684 2431 1903 589
CIN
-143 -100 -142 -382 -95 -67 -14 -10 -26 -32 -38 -108 -83 -40 -63 -92 -89 -0 -274 -14 -175 -83 -26 -8 -4 -1 -1 -4 -0 -0 -2 -0 -0 -0 -0 -0 -0 -6 -0 -1 -0 -0 -0 -55 -0 -0 -0 -0 -0
-103 -65 -174 -323 -46 -26 -30 -13 -41 -55 -78 -118 -63 -93 -101 -145 -190 -257 -281 -178 -90 -84 -53 -41 -22 -13 -13 -3 -1 -0 -0 -0 -0 -6 -0 -0 -0 -19 -0 -0 -0 -0 -0 -0 -4 -0 -0 -0 -7
-309 -361 -199 -125 -100 -35 -27 -14 -42 -33 -90 -126 -154 -169 -141 -165 -198 -271 -279 -118 -88 -120 -102 -56 -25 -39 -23 -6 -3 -3 -0 -0 -0 -11 -4 -0 -0 -0 -0 -0 -0 -0 -0 -0 -0 -0 -8 -2 -12
-165 -217 -146 -60 -46 -24 -14 -28 -1 -0 -0 -167 -137 -159 -166 -139 -200 -232 -157 -159 -186 -186 -124 -48 -35 -36 -13 -3 -23 -10 -0 -0 -8 -0 -16 -10 -0 -0 -0 -0 -0 -0 -0 -0 -0 -0 -0 -6 -23
-0 -107 -81 -48 -21 -22 -29 -51 -113 -72 -72 -102 -133 -157 -157 -143 -186 -214 -203 -194 -0 -204 -97 -39 -38 -11 -0 -3 -22 -5 -0 -0 -0 -0 -0 -0 -0 -0 -0 -0 -0 -0 -0 -0 -0 -6 -8 -13 -15
-0 -216 -59 -13 -19 -55 -9 -48 -85 -73 -97 -129 -126 -121 -93 -139 -164 -156 -176 -201 -194 -0 -117 -62 -25 -14 -6 -4 -10 -6 -2 -0 -0 -0 -0 -0 -0 -0 -0 -0 -0 -1 -6 -13 -16 -16 -8 -12 -29
-123 -143 -32 -27 -1 -17 -27 -50 -68 -103 -125 -155 -125 -84 -38 -55 -94 -117 -119 -111 -242 -162 -145 -79 -40 -5 -13 -13 -5 -0 -8 -0 -0 -0 -0 -0 -0 -0 -0 -0 -0 -0 -10 -6 -10 -24 -24 -15 -28
-237 -215 -55 -36 -10 -14 -36 -48 -56 -78 -93 -175 -101 -84 -46 -35 -65 -68 -74 -97 -123 -175 -162 -108 -50 -30 -35 -19 -5 -7 -6 -0 -0 -0 -0 -0 -0 -0 -0 -0 -0 -0 -11 -0 -27 -24 -35 -23 -9
-422 -94 -31 -16 -15 -43 -36 -25 -41 -64 -155 -0 -9 -96 -50 -42 -48 -65 -114 -93 -172 -164 -228 -108 -77 -74 -71 -52 -28 -14 -6 -0 -5 -4 -8 -4 -7 -6 -3 -22 -11 -9 -6 -12 -32 -11 -20 -37 -44
-221 -103 -29 -48 -57 -61 -79 -40 -63 -107 -135 -140 -158 -93 -45 -72 -69 -84 -111 -125 -186 -201 -250 -142 -137 -160 -122 -84 -48 -46 -42 -42 -28 -31 -20 -18 -31 -35 -32 -12 -16 -14 -11 -23 -34 -35 -76 -42 -98
-107 -46 -18 -48 -42 -35 -52 -64 -61 -88 -93 -131 -144 -127 -68 -55 -76 -101 -149 -134 -148 -170 -183 -145 -125 -113 -128 -131 -68 -80 -99 -73 -63 -69 -47 -46 -46 -43 -16 -20 -19 -22 -24 -41 -32 -35 -51 -0 -0
-85 -51 -15 -33 -10 -23 -57 -50 -66 -63 -113 -184 -154 -136 -109 -78 -92 -134 -239 -191 -196 -180 -141 -147 -118 -106 -147 -115 -117 -128 -136 -135 -95 -80 -65 -59 -49 -43 -32 -47 -72 -69 -66 -83 -86 -60 -51 -153 -67
-68 -42 -25 -40 -47 -37 -20 -31 -69 -107 -160 -184 -178 -142 -149 -111 -110 -163 -55 -245 -192 -141 -125 -125 -136 -108 -122 -115 -129 -82 -89 -87 -84 -73 -69 -61 -51 -56 -53 -50 -83 -62 -71 -68 -62 -58 -75 -74 -71
-61 -35 -66 -45 -63 -75 -49 -75 -94 -134 -162 -171 -171 -168 -176 -176 -151 -204 -58 -0 -185 -146 -147 -147 -136 -111 -112 -117 -102 -61 -66 -59 -69 -56 -57 -65 -54 -48 -83 -53 -63 -48 -59 -63 -61 -73 -70 -68 -84
-122 -65 -44 -69 -87 -122 -130 -115 -132 -197 -193 -191 -183 -189 -218 -181 -253 -224 -183 -213 -203 -197 -174 -160 -166 -137 -133 -156 -115 -107 -66 -52 -43 -56 -53 -67 -56 -46 -40 -55 -48 -49 -51 -61 -100 -96 -75 -96 -90
-87 -107 -51 -44 -58 -137 -169 -145 -180 -209 -203 -187 -200 -200 -211 -223 -178 -188 -205 -211 -228 -226 -186 -154 -124 -115 -122 -104 -82 -129 -93 -44 -44 -49 -49 -45 -48 -37 -29 -35 -36 -46 -44 -62 -60 -56 -69 -96 -78
-138 -75 -89 -93 -112 -106 -144 -171 -210 -218 -185 -179 -212 -212 -218 -264 -202 -216 -207 -236 -191 -203 -191 -168 -133 -92 -72 -79 -67 -119 -113 -87 -56 -62 -44 -40 -47 -44 -40 -37 -30 -28 -39 -45 -48 -44 -55 -49 -54
-62 -80 -135 -76 -101 -182 -142 -183 -223 -228 -210 -198 -200 -206 -208 -248 -0 -68 -0 -0 -224 -194 -163 -142 -110 -118 -88 -92 -106 -181 -112 -61 -70 -46 -42 -48 -54 -43 -33 -52 -48 -41 -35 -30 -40 -36 -40 -41 -35
-65 -45 -84 -93 -132 -197 -168 -156 -198 -237 -194 -202 -209 -178 -166 -168 -199 -167 -0 -0 -276 -209 -169 -172 -137 -144 -138 -136 -117 -169 -111 -51 -39 -46 -42 -44 -38 -39 -35 -38 -40 -44 -33 -31 -26 -26 -22 -29 -38
-91 -44 -42 -113 -159 -165 -234 -145 -239 -200 -170 -167 -157 -178 -173 -179 -192 -209 -284 -341 -292 -219 -194 -234 -173 -179 -161 -156 -140 -110 -88 -43 -41 -47 -44 -35 -29 -36 -39 -39 -36 -38 -34 -31 -33 -23 -22 -34 -29
-44 -0 -37 -44 -148 -208 -222 -173 -223 -252 -204 -179 -141 -155 -174 -192 -214 -224 -273 -304 -313 -276 -278 -297 -201 -183 -183 -169 -152 -102 -58 -42 -41 -42 -37 -39 -48 -42 -39 -37 -43 -43 -51 -56 -42 -33 -29 -35 -30
-0 -3 -0 -57 -87 -68 -174 -50 -177 -254 -255 -205 -166 -167 -184 -203 -200 -218 -244 -280 -334 -330 -345 -276 -257 -224 -212 -184 -154 -167 -107 -52 -46 -39 -35 -30 -49 -51 -39 -41 -50 -55 -56 -70 -56 -42 -34 -41 -37
-0 -0 -0 -0 -0 -0 -53 -0 -82 -241 -264 -279 -233 -199 -193 -208 -194 -205 -223 -256 -272 -300 -315 -259 -287 -255 -235 -203 -188 -179 -138 -109 -64 -60 -39 -60 -49 -47 -50 -54 -57 -67 -66 -58 -50 -38 -32 -30 -19
-0 -0 -0 -0 -0 -0 -0 -0 -0 -176 -194 -265 -255 -245 -243 -237 -242 -212 -201 -244 -262 -263 -273 -274 -255 -244 -264 -242 -212 -174 -127 -102 -100 -93 -54 -36 -52 -49 -54 -54 -57 -58 -59 -52 -45 -31 -25 -17 -15
-0 -0 -0 -0 -0 -0 -0 -0 -0 -92 -200 -225 -262 -298 -304 -316 -280 -248 -207 -235 -264 -271 -285 -274 -263 -226 -245 -259 -252 -220 -140 -128 -116 -82 -46 -44 -54 -54 -47 -63 -68 -61 -59 -48 -39 -26 -20 -16 -17
-0 -0 -0 -0 -0 -0 -0 -0 -0 -0 -172 -202 -271 -273 -347 -372 -341 -320 -268 -254 -248 -288 -272 -277 -273 -239 -249 -245 -253 -249 -190 -111 -103 -112 -92 -58 -52 -64 -67 -39 -61 -73 -66 -43 -33 -28 -13 -32 -30
-0 -0 -0 -0 -0 -0 -0 -0 -0 -0 -200 -207 -247 -288 -334 -368 -390 -379 -336 -296 -286 -322 -293 -279 -257 -235 -240 -236 -235 -235 -232 -182 -107 -60 -59 -52 -61 -46 -31 -41 -71 -72 -60 -25 -14 -10 -15 -48 -94
-0 -0 -0 -0 -0 -0 -0 -0 -0 -0 -0 -241 -216 -202 -262 -314 -387 -401 -403 -382 -340 -375 -305 -283 -263 -240 -229 -235 -226 -218 -202 -213 -186 -111 -62 -55 -64 -60 -65 -62 -55 -57 -40 -28 -33 -35 -42 -70 -123
-0 -0 -0 -0 -0 -0 -0 -0 -0 -0 -0 -0 -176 -149 -214 -305 -308 -392 -441 -434 -427 -432 -360 -314 -295 -260 -263 -232 -223 -192 -201 -191 -159 -145 -114 -77 -44 -35 -39 -37 -39 -44 -42 -30 -48 -25 -36 -75 -109
-0 -0 -0 -0 -0 -0 -0 -0 -0 -0 -0 -0 -8 -148 -12 -0 -239 -315 -389 -445 -458 -456 -424 -346 -312 -279 -252 -246 -232 -196 -178 -163 -137 -124 -108 -85 -48 -35 -31 -26 -31 -34 -32 -42 -31 -19 -25 -43 -164
Wind_Speed
14 14 15 13 9 9 5 9 24 23 21 18 25 22 19 14 18 13 26 28 25 24 27 25 27 27 21 23 25 26 23 25 25 24 25 24 26 27 27 27 27 26 26 26 25 24 21 22 24
12 15 17 15 9 6 9 20 18 21 25 25 22 17 12 17 9 15 18 26 26 25 27 24 26 27 24 26 26 25 24 25 25 25 23 27 27 27 28 27 27 26 25 25 25 24 23 22 23
19 8 12 12 22 25 25 22 23 25 26 23 20 11 13 17 20 24 19 25 22 25 27 28 24 20 27 26 24 23 25 25 25 26 26 27 27 27 27 27 26 25 24 24 24 23 22 22 22
10 10 12 17 26 23 23 23 25 23 23 22 22 18 14 22 24 25 26 24 23 24 28 28 25 23 27 26 23 25 25 26 26 27 27 27 27 27 26 26 25 25 24 22 22 21 20 20 20
9 14 16 13 23 18 26 26 26 24 20 20 21 20 18 19 22 26 26 26 23 23 27 27 23 28 27 26 25 26 26 26 27 27 27 26 26 26 26 26 25 25 24 23 22 21 21 20 19
12 14 19 12 17 24 21 25 23 22 23 23 23 17 6 18 23 23 25 23 20 22 24 25 27 28 27 27 27 27 26 27 26 26 26 26 26 26 25 25 24 24 23 22 22 20 19 20 20
13 13 15 18 27 23 25 26 24 24 24 23 23 19 21 22 23 21 21 21 22 23 23 30 29 28 27 27 27 27 27 26 26 26 26 26 25 25 25 24 23 23 22 21 20 20 20 21 21
21 17 14 18 22 8 25 26 25 24 22 26 26 21 25 27 26 20 22 21 27 31 30 31 30 28 27 27 27 27 27 26 26 25 25 25 24 24 23 23 23 22 21 21 21 22 22 21 20
22 15 21 26 23 26 27 27 26 24 26 25 16 26 29 29 28 22 12 29 27 28 31 31 30 29 28 27 27 26 26 25 25 25 24 24 23 23 22 22 21 20 20 20 20 21 20 20 20
18 18 21 25 26 24 25 25 26 25 26 24 26 28 30 29 30 28 31 32 31 30 31 30 30 29 28 27 26 26 25 25 24 24 24 23 23 22 21 21 20 19 19 18 18 18 17 18 17
19 17 25 26 23 25 26 26 28 27 26 25 28 31 34 37 35 34 33 32 31 30 30 30 29 29 28 27 26 26 25 24 24 23 23 22 22 21 20 20 19 18 18 17 17 17 16 15 15
18 18 23 23 23 24 25 25 24 22 23 27 29 33 35 35 34 34 31 30 29 30 29 29 29 29 28 26 26 25 24 23 24 22 23 22 20 20 20 19 19 18 17 16 15 16 14 13 13
20 24 25 25 24 25 25 22 21 23 26 27 29 31 31 31 30 30 30 30 30 30 29 29 28 27 27 25 24 24 23 23 23 21 22 21 19 19 18 18 17 17 16 14 13 13 12 11 11
22 23 22 24 26 23 22 21 21 23 26 26 29 30 30 29 29 29 29 30 29 29 28 28 28 27 25 25 23 22 22 22 22 20 21 21 19 18 17 16 16 14 14 13 13 12 11 11 9
20 24 19 23 22 22 24 21 19 24 23 26 28 28 28 27 28 26 27 28 28 28 27 27 27 25 24 23 21 20 22 22 21 20 21 20 19 18 16 15 14 14 13 12 11 11 10 9 8
15 18 18 18 19 20 20 20 20 24 23 25 27 28 27 25 27 27 26 27 26 25 26 26 26 25 21 24 22 19 22 22 21 19 19 19 17 15 14 13 13 13 12 11 9 9 8 7 6
11 14 16 18 18 19 19 21 22 24 21 23 25 26 26 23 24 25 24 23 24 22 24 24 23 21 21 22 25 24 17 14 21 18 16 16 15 13 11 10 10 11 9 9 8 7 7 6 5
12 14 14 18 19 16 18 18 23 22 21 21 24 24 22 21 22 23 23 22 21 21 21 22 20 20 20 20 21 24 25 13 17 16 14 13 12 11 11 10 10 8 8 7 7 6 6 4 4
14 15 15 17 20 18 16 18 20 21 20 23 24 23 23 22 22 22 23 22 21 21 21 21 18 19 19 19 20 19 20 16 13 16 15 14 13 12 11 11 11 10 9 8 7 7 6 5 5
16 14 20 19 19 21 15 17 19 20 21 24 25 25 25 23 22 23 23 22 22 24 25 23 22 23 23 22 21 20 21 21 18 16 16 16 15 14 13 12 11 9 9 8 8 6 6 5 9
15 16 17 23 19 21 16 15 17 19 19 21 23 24 23 24 24 24 25 24 23 23 23 22 21 22 24 23 22 21 21 21 16 15 15 17 17 16 14 13 11 9 8 8 7 6 5 4 12
18 22 5 19 20 18 20 13 18 18 19 22 23 25 24 24 25 25 25 25 25 25 23 22 20 20 22 22 20 20 20 18 14 13 14 13 16 13 12 11 10 11 10 8 7 6 5 10 3
23 21 23 15 19 19 19 18 14 21 19 22 26 27 28 26 25 26 27 26 27 26 25 24 21 20 20 20 20 20 20 19 15 11 11 11 10 10 11 11 9 10 10 9 8 6 5 8 11
26 27 25 24 20 22 15 21 15 21 24 23 28 28 28 29 28 28 28 26 26 27 26 25 24 23 23 22 22 21 21 21 17 16 16 13 12 10 10 12 12 11 10 9 8 5 5 9 15
26 23 23 26 25 26 19 16 18 24 28 25 28 29 28 29 28 28 29 28 25 27 27 26 25 24 24 24 23 23 21 21 19 19 16 14 13 12 14 13 13 12 11 8 5 2 2 8 16
34 24 18 24 25 27 27 22 20 17 26 28 28 28 27 26 29 29 30 30 28 26 27 26 26 25 25 24 24 24 23 21 20 19 16 14 13 14 16 15 13 11 9 5 2 1 4 15 21
33 34 30 26 23 29 30 29 28 22 25 28 27 27 25 27 27 27 29 30 29 25 26 27 26 26 24 23 23 23 22 22 20 18 16 14 14 13 15 15 12 9 7 4 4 6 15 20 11
26 32 34 25 31 35 30 32 26 6 19 24 25 26 23 24 25 25 24 26 28 25 25 25 25 25 24 22 22 22 21 21 20 18 15 14 14 15 15 14 11 9 6 4 4 7 11 10 6
35 32 27 28 24 28 38 32 24 29 14 20 22 26 23 20 21 22 22 22 25 23 22 23 22 23 22 21 19 19 19 18 17 16 16 14 12 12 11 10 8 5 2 3 7 7 11 10 7
31 35 33 31 31 29 34 42 25 34 18 17 18 21 19 19 20 17 19 21 20 19 20 21 20 20 21 19 17 16 14 15 15 14 14 13 13 10 10 9 7 5 1 5 6 6 9 9 7
Wind_Direction
195 176 240 229 357 235 242 16 77 75 127 175 123 133 92 64 97 48 111 123 111 107 117 109 121 120 89 92 105 118 88 120 109 83 83 95 98 100 102 101 107 94 87 88 91 79 64 65 78
170 152 181 209 224 233 229 153 44 61 86 98 77 61 21 67 342 77 91 113 112 111 118 108 115 121 104 119 124 113 107 118 109 100 77 114 105 108 110 110 100 95 93 86 87 82 76 69 86
76 201 166 181 155 121 117 139 76 80 87 77 65 7 28 64 78 99 106 109 104 111 116 118 105 94 148 135 112 104 116 114 109 102 105 115 116 112 113 110 105 100 86 85 86 80 76 81 87
198 312 198 172 121 148 140 90 85 75 65 62 65 48 39 99 97 106 107 106 104 107 116 118 107 106 143 125 105 111 116 116 114 116 113 116 116 115 112 106 99 97 90 77 75 77 72 78 82
208 179 176 190 117 148 105 92 91 81 57 66 77 74 72 88 93 105 110 113 106 105 118 120 103 130 132 126 114 119 115 114 121 125 122 125 117 117 117 118 122 121 116 110 97 87 87 93 87
217 184 162 27 36 100 141 102 84 73 80 79 69 64 351 92 101 106 108 108 104 108 116 119 126 135 131 129 129 129 125 122 124 126 120 122 125 123 123 125 128 128 123 119 118 114 113 104 101
180 182 175 136 115 94 111 108 94 86 86 93 83 70 98 106 110 104 103 101 107 121 116 143 149 141 137 136 130 132 126 126 128 130 129 131 130 130 125 125 130 128 125 120 111 106 118 127 108
134 164 182 162 68 180 121 115 106 99 93 104 95 108 118 123 116 101 103 98 118 145 142 149 151 149 147 145 132 131 134 130 128 130 129 131 135 132 130 132 133 133 127 113 102 118 109 118 111
139 169 142 101 86 94 90 100 117 103 98 114 135 109 116 117 118 104 82 158 166 163 149 147 149 152 147 145 141 134 130 124 124 130 131 138 147 142 135 137 134 131 128 116 112 112 108 109 107
147 139 143 120 106 114 113 103 113 104 111 105 93 104 118 120 125 120 128 147 154 153 152 148 148 147 149 154 147 137 129 130 130 135 143 148 148 144 141 142 140 137 129 127 129 132 118 120 119
139 137 122 106 109 102 120 97 111 99 115 114 113 119 125 136 136 141 149 153 151 148 153 152 144 148 143 146 143 143 138 137 142 141 148 155 153 154 150 144 142 135 140 138 144 148 131 125 131
130 151 116 114 105 109 124 104 115 118 127 122 123 130 137 143 144 151 151 152 146 149 146 146 149 148 148 144 141 142 137 137 146 148 154 156 157 162 155 145 143 137 136 130 141 150 141 131 126
132 122 111 104 109 102 98 111 105 108 121 122 132 138 143 147 152 158 156 152 150 150 152 151 149 150 152 145 144 147 150 147 154 159 161 159 156 159 150 150 148 146 146 133 135 145 155 143 141
121 126 117 117 96 95 80 91 87 114 120 129 143 153 153 148 152 158 159 156 155 154 152 151 153 155 151 154 149 157 153 150 157 158 156 157 153 158 149 150 155 151 155 143 123 122 127 148 148
126 104 118 121 121 105 75 83 92 118 120 133 150 158 158 158 153 149 152 154 156 158 152 153 153 153 156 155 156 165 161 158 156 156 159 161 163 169 156 151 156 154 147 141 122 126 118 112 134
132 119 116 148 132 127 113 107 101 124 120 135 151 163 168 162 160 160 153 155 153 151 152 152 153 152 134 153 155 126 151 160 164 152 152 164 152 140 136 132 142 131 136 142 111 106 118 139 147
152 143 133 154 153 127 120 103 128 133 125 139 153 158 160 132 138 143 148 146 146 141 146 147 147 147 150 159 181 178 125 120 163 154 147 146 144 131 123 126 110 120 103 121 104 118 117 132 150
164 158 148 145 157 148 110 111 127 137 135 140 153 152 141 135 139 145 148 147 141 145 144 145 144 148 149 152 164 174 194 308 150 144 137 136 130 127 126 114 128 99 116 107 102 115 118 107 118
178 174 179 164 161 155 122 113 131 143 142 149 155 149 147 147 150 147 150 145 138 140 143 147 143 146 143 145 147 150 157 150 130 147 144 140 136 134 131 134 137 117 129 135 105 94 119 98 102
163 180 207 219 157 166 149 136 139 145 153 157 154 152 156 153 149 153 153 145 143 147 152 150 152 155 154 152 153 153 156 170 152 145 149 155 153 147 145 148 144 132 140 150 144 108 106 102 54
179 161 198 199 157 172 142 168 153 163 158 163 164 160 156 156 155 155 154 152 150 151 153 151 149 152 156 156 153 159 158 182 144 142 144 155 161 158 150 154 152 147 128 145 151 142 117 145 23
249 258 55 165 164 176 167 190 176 167 168 171 171 171 166 161 160 158 160 158 159 160 156 154 149 144 150 152 152 154 152 151 127 127 147 147 160 152 149 141 130 152 150 155 152 146 145 40 180
245 258 252 150 163 193 180 206 208 176 176 177 178 176 174 169 163 164 164 166 168 165 163 161 155 152 150 152 153 153 158 162 151 120 117 136 141 153 155 152 140 141 149 156 159 154 127 57 34
249 262 245 252 217 223 194 196 208 179 186 178 181 180 176 173 172 172 171 165 167 169 168 166 164 163 160 159 159 160 166 169 162 158 160 160 160 159 162 169 171 172 166 169 163 140 75 31 10
272 291 268 240 229 222 239 195 219 194 188 177 174 178 177 173 172 172 174 172 166 168 170 169 169 169 168 168 167 167 168 171 169 165 161 160 154 157 171 175 184 186 185 175 166 141 60 22 10
251 289 298 268 271 241 262 232 250 189 183 182 178 175 175 171 174 174 177 174 173 169 170 170 172 173 171 171 173 174 176 173 176 178 169 165 165 176 184 178 179 178 179 172 135 11 343 355 357
256 261 258 282 294 280 258 256 259 226 175 179 180 177 174 177 175 177 177 178 176 172 171 172 173 175 173 173 174 176 177 179 177 173 173 174 179 175 176 184 180 163 146 115 45 7 357 1 46
276 258 267 280 274 266 274 277 266 325 166 177 180 181 177 179 180 181 175 175 178 176 175 172 174 174 174 173 174 176 177 179 182 182 178 178 187 190 187 188 175 161 131 84 27 6 16 26 26
265 271 275 274 278 281 266 276 296 255 171 182 184 183 179 177 177 177 177 177 177 176 173 175 173 174 174 173 172 174 176 176 177 180 186 189 183 187 178 170 168 168 165 7 7 9 14 15 29
272 269 273 267 271 279 273 254 290 268 202 183 177 177 176 172 173 170 173 174 174 174 174 176 175 174 176 174 171 172 171 172 174 176 178 181 189 183 189 199 200 209 154 9 3 355 8 10 8